Location: Wald
(31.7579°N, 86.6655°W)
Time: 21:08:14
(UTC+00:00)

GPS 2-04 Rocket1 - Pass Details

Date: 14 July 2020
Orbit: 418 x 549 km, 35.6° (Epoch: 13 August)

Event Time Altitude Azimuth Distance (km) Brightness Sun altitude
Rises 01:42:50 0° 207° (SSW) 2,361 6.0 -9.9°
Reaches altitude 10° 01:45:45 10° 180° (S) 1,486 4.7 -10.4°
Enters shadow 01:47:22 14° 151° (SSE) 1,279 4.2 -10.7°
